Regional Weather Roundup
Issued by NWS

Home | Current Version | Previous Version | Text Only | Print | Product List | Glossary Off
Versions: 1 2 3 4 5 6 7 8 9 10 11 12 13 14 15 16 17 18 19 20 21 22 23 24 25 26 27 28 29 30 31 32 33 34 35 36 37 38 39 40 41 42 43 44 45 46 47 48 49 50

000
ASUS43 KIND 252109
RWRIN

WEATHER ROUNDUP FOR INDIANA
NATIONAL WEATHER SERVICE INDIANAPOLIS IN
500 PM EDT FRI JUL 25 2014

NOTE: "FAIR" INDICATES FEW OR NO CLOUDS BELOW 12,000 FEET WITH NO
SIGNIFICANT WEATHER AND/OR OBSTRUCTIONS TO VISIBILITY.

* - STATION DOES NOT REPORT WEATHER SUCH AS PRECIPITATION OR FOG.

+ - STATION NOT QUALITY CONTROLLED BY THE NATIONAL WEATHER SERVICE.
    USE DATA WITH CAUTION...ESPECIALLY DEWPOINT AND RELATIVE
    HUMIDITY OBSERVATIONS.

INZ001>003-010>013-019-020-252200-
NORTHWEST INDIANA

CITY           SKY/WX    TMP DP  RH WIND       PRES   REMARKS
GARY /AIRPORT/ CLOUDY    73  57  56 S12       29.97F
KNOX *+        CLOUDY    72  56  58 SW8       29.97R
LA PORTE +     CLOUDY    71  56  58 SW9       29.99S
MICHIGAN CITY+ CLOUDY    70  55  60 SW8       29.99S
MONTICELLO +   CLOUDY    71  59  64 S7        29.98R
RENSSELAER +   PTSUNNY   72  61  68 S9        29.96F
VALPARAISO     CLOUDY    71  56  58 SW14      29.98R

$$

LMZ046-743>745-252200-
SOUTHERN LAKE MICHIGAN

STATION/POSITION TIME  TEMP WIND        PRES
                       AIR  DIR/SP/G
                 (UTC) (F)  (DEG/KT/KT) (MB)
BURNS HARBOR     2000   73  190/ 13/ 24 1014.9F
MICHIGAN CITY    2100   71  200/ 12/ 16   N/A

$$

INZ004-005-014>016-021>024-252200-
NORTH CENTRAL INDIANA

CITY           SKY/WX    TMP DP  RH WIND       PRES   REMARKS
ELKHART        LGT RAIN  72  57  60 SW12      30.00R
GOSHEN         LGT RAIN  73  58  59 SW10      29.99S
LOGANSPORT +   CLOUDY    70  55  60 SW9       29.99S
PERU/GRISSOM   DRIZZLE   72  59  64 S10       29.97F
ROCHESTER +    CLOUDY    73  55  53 SW6       30.00R
SOUTH BEND     CLOUDY    74  56  53 SW9       30.00R
WARSAW +       CLOUDY    72  57  60 S7        29.97F

$$

INZ006>009-017-018-025>027-252200-
NORTHEAST INDIANA

CITY           SKY/WX    TMP DP  RH WIND       PRES   REMARKS
ANGOLA *+      SUNNY     73  63  68 SW7       29.99F
AUBURN +       CLOUDY    73  52  46 SW8       30.00F
FORT WAYNE     CLOUDY    74  55  51 SW12      30.00F
HUNTINGTON +   CLOUDY    73  55  54 S6        29.98F

$$

INZ028-029-035-036-043>045-051>053-252200-
WEST CENTRAL INDIANA

CITY           SKY/WX    TMP DP  RH WIND       PRES   REMARKS
GREENCASTLE +  CLOUDY    70  59  68 S6        29.99F
LAFAYETTE      CLOUDY    73  57  57 S9        29.95F
TERRE HAUTE    CLOUDY    72  59  63 S9        29.97R

$$

INZ030>032-037>040-046>048-054>057-064-065-252200-
CENTRAL INDIANA

CITY           SKY/WX    TMP DP  RH WIND       PRES   REMARKS
CP ATTERBURY + CLOUDY    72  59  64 SE8       29.99F
COLUMBUS       PTSUNNY   73  57  56 W8        30.02F
FRANKFORT +    CLOUDY    72  59  64 S5        29.99
INDIANAPOLIS   CLOUDY    71  56  58 S8        29.99F
-EAGLE CREEK   CLOUDY    71  55  56 SW5       30.00F
KOKOMO *+      CLOUDY    72  54  53 S12       29.98F
MARION +       CLOUDY    72  54  52 S9        30.01F
MT COMFORT *+  CLOUDY    72  59  64 SW5       30.02S
SHELBYVILLE    CLOUDY    74  58  57 S5        30.00F
ZIONSVILLE +   DRIZZLE   71  58  63 S5        30.02F

$$

INZ033-034-041-042-049-050-058-059-252200-
EAST CENTRAL INDIANA

CITY           SKY/WX    TMP DP  RH WIND       PRES   REMARKS
MUNCIE         CLOUDY    74  53  48 VRB7      30.01F

$$

INZ060-061-067>069-081>083-085>088-252200-
SOUTHWEST INDIANA

CITY           SKY/WX    TMP DP  RH WIND       PRES   REMARKS
EVANSVILLE     CLOUDY    77  58  51 W6        30.08R
HUNTINGBURG *+ CLOUDY    77  57  50 NW6       30.05F
WASHINGTON +   CLOUDY    73  60  64 S10       29.98F

$$

INZ062-063-066-070>080-084-089>092-252200-
SOUTH CENTRAL AND SOUTHEAST INDIANA

CITY           SKY/WX    TMP DP  RH WIND       PRES   REMARKS
BEDFORD +      CLOUDY    73  54  49 S7        30.00
BLOOMINGTON    CLOUDY    71  58  63 S9G20     29.96F
NORTH VERNON + CLOUDY    75  57  53 CALM      30.04

$$



USA.gov is the U.S. government's official web portal to all federal, state and local government web resources and services.